PST,Max TemperatureF,Mean TemperatureF,Min TemperatureF,Max Dew PointF,MeanDew PointF,Min DewpointF,Max Humidity, Mean Humidity, Min Humidity, Max Sea Level PressureIn, Mean Sea Level PressureIn, Min Sea Level PressureIn, Max VisibilityMiles, Mean VisibilityMiles, Min VisibilityMiles, Max Wind SpeedMPH, Mean Wind SpeedMPH, Max Gust SpeedMPH,PrecipitationIn, CloudCover, Events, WindDirDegrees
2013-11-1,56,54,51,52,49,48,93,85,77,30.28,30.14,29.77,9,3,0,17,3,24,0.42,8,Fog-Rain,167
2013-11-2,54,51,48,50,45,39,89,74,59,29.91,29.61,29.35,9,4,1,33,15,52,0.76,8,Rain,243
2013-11-3,54,46,38,39,37,35,85,68,50,30.11,30.05,29.94,8,7,6,14,6,18,0.00,2,,311
2013-11-4,50,43,36,45,39,32,89,75,61,30.15,30.07,29.97,8,5,1,9,5,13,0.18,7,Rain-Snow,77
2013-11-5,54,47,40,48,44,37,93,82,71,30.26,30.10,29.97,7,3,0,10,4,13,0.14,7,Fog-Rain,208
2013-11-6,55,49,43,52,45,39,89,83,77,30.30,30.12,29.93,8,6,2,14,5,25,0.14,7,Rain,104
2013-11-7,57,53,49,54,48,44,93,85,77,30.03,29.71,29.55,8,3,0,22,10,35,1.45,8,Fog-Rain,204
2013-11-8,57,51,44,48,45,41,93,82,71,30.14,30.11,30.04,8,6,1,12,3,15,0.03,7,Rain,222
2013-11-9,53,48,43,47,42,39,89,80,71,30.12,30.10,30.08,8,7,4,8,3,10,T,7,Rain,68
2013-11-10,54,50,45,44,42,41,82,74,66,30.11,30.08,30.05,8,6,6,15,7,20,0.00,2,,49
2013-11-11,66,55,44,47,43,37,89,62,34,30.10,30.01,29.91,7,6,5,16,6,28,0.02,3,Rain,89
2013-11-12,64,59,54,52,51,43,93,87,80,30.36,30.16,29.94,8,3,0,20,8,38,1.19,8,Fog-Rain,178
2013-11-13,57,53,49,52,48,46,93,83,72,30.45,30.40,30.33,6,3,0,13,3,15,0.04,8,Fog-Rain,235
2013-11-14,55,47,39,48,44,36,93,82,71,30.32,30.19,30.09,6,2,0,10,2,13,0.05,7,Fog-Rain,294
2013-11-15,52,46,39,48,44,37,93,80,66,30.09,29.79,29.43,7,3,0,26,8,40,0.88,8,Fog-Rain,234
2013-11-16,50,47,44,42,37,34,92,74,56,29.77,29.61,29.44,7,6,5,24,6,37,0.01,7,Rain,294
2013-11-17,55,50,44,48,44,39,93,82,71,29.89,29.81,29.76,7,4,2,13,3,18,0.41,8,Rain,192
2013-11-18,54,51,47,52,48,43,96,91,86,29.89,29.68,29.51,8,3,0,15,4,20,1.06,8,Fog-Rain,91
2013-11-19,49,39,28,43,35,23,92,65,38,30.09,29.82,29.63,8,6,1,16,4,24,T,3,,331
2013-11-20,49,37,25,31,25,18,92,61,29,30.51,30.34,30.13,8,7,5,8,1,9,0.00,0,,24
2013-11-21,48,36,24,33,27,21,88,67,46,30.64,30.60,30.51,8,7,6,8,3,13,0.00,0,,85
2013-11-22,52,40,28,32,29,24,85,63,41,30.61,30.51,30.39,8,7,6,10,4,14,0.00,0,,73
2013-11-23,60,47,33,40,33,30,85,66,46,30.38,30.26,30.17,8,7,6,9,2,12,0.00,0,,55
2013-11-24,60,45,30,41,34,27,89,65,40,30.23,30.17,30.14,7,7,5,9,1,12,0.00,0,,40
2013-11-25,57,46,34,42,35,31,89,70,50,30.29,30.26,30.22,7,6,5,9,3,14,0.00,0,,96
2013-11-26,56,46,35,45,39,30,86,65,43,30.22,30.12,30.06,7,5,1,12,4,17,0.03,5,Rain,103
2013-11-27,59,50,40,50,43,37,93,80,67,30.06,29.99,29.93,7,3,0,9,2,12,0.26,4,Fog-Rain,77
2013-11-28,60,48,36,45,40,34,96,77,57,30.19,30.07,30.01,6,3,0,8,1,10,T,3,Fog,30
2013-11-29,51,49,47,46,45,43,93,85,77,30.31,30.25,30.19,6,2,0,7,1,10,0.08,8,Fog-Rain,249
2013-11-30,52,50,48,49,47,45,89,88,86,30.31,30.23,30.04,5,2,0,10,6,18,0.77,8,Fog-Rain,165